| time (UTC) | temp C | wind direction | speed KPH | gust KPH | rain 1hr cm | rain 24hr cm | rain mn cm | humidity % | barometer mb |
| 20260510180055 | 25 | 15 | 6.4 | 22.5 | 0.00 | 0.00 | 0.00 | 40 | 1014.5 |
| 20260510174552 | 25 | 92 | 6.4 | 22.5 | 0.00 | 0.00 | 0.00 | 39 | 1015.0 |
| 20260510173056 | 25 | 74 | 9.7 | 32.2 | 0.00 | 0.00 | 0.00 | 41 | 1015.1 |
| 20260510171553 | 24 | 30 | 1.6 | 27.4 | 0.00 | 0.00 | 0.00 | 42 | 1015.3 |
| 20260510170104 | 23 | 35 | 4.8 | 16.1 | 0.00 | 0.00 | 0.00 | 46 | 1015.5 |
| 20260510164558 | 24 | 183 | 3.2 | 16.1 | 0.00 | 0.00 | 0.00 | 44 | 1015.5 |
| 20260510163055 | 23 | 143 | 9.7 | 20.9 | 0.00 | 0.00 | 0.00 | 46 | 1015.6 |
| 20260510161608 | 23 | 98 | 4.8 | 20.9 | 0.00 | 0.00 | 0.00 | 45 | 1015.5 |
| 20260510160146 | 23 | 129 | 4.8 | 20.9 | 0.00 | 0.00 | 0.00 | 47 | 1015.6 |
| 20260510154614 | 23 | 227 | 3.2 | 19.3 | 0.00 | 0.00 | 0.00 | 45 | 1015.6 |
| 20260510153106 | 22 | 170 | 3.2 | 14.5 | 0.00 | 0.00 | 0.00 | 50 | 1015.8 |
| 20260510151604 | 21 | 337 | 1.6 | 6.4 | 0.00 | 0.00 | 0.00 | 63 | 1015.8 |
| 20260510150059 | 20 | 75 | 0.0 | 4.8 | 0.00 | 0.00 | 0.00 | 70 | 1016.0 |
| 20260510144557 | 18 | 57 | 1.6 | 6.4 | 0.00 | 0.00 | 0.00 | 74 | 1016.1 |
| 20260510143058 | 17 | 63 | 0.0 | 8.0 | 0.00 | 0.00 | 0.00 | 74 | 1016.1 |
| 20260510141559 | 16 | 338 | 3.2 | 4.8 | 0.00 | 0.00 | 0.00 | 76 | 1016.2 |
| 20260510140109 | 15 | 58 | 1.6 | 4.8 | 0.00 | 0.00 | 0.00 | 79 | 1016.2 |
| 20260510134605 | 14 | 52 | 3.2 | 4.8 | 0.00 | 0.00 | 0.00 | 80 | 1016.3 |
| 20260510133057 | 13 | 71 | 0.0 | 0.0 | 0.00 | 0.00 | 0.00 | 82 | 1016.5 |
| 20260510131603 | 12 | 0 | 0.0 | 3.2 | 0.00 | 0.00 | 0.00 | 85 | 1016.5 |
| 20260510130053 | 12 | 155 | 0.0 | 1.6 | 0.00 | 0.00 | 0.00 | 88 | 1016.5 |
| 20260510124558 | 10 | 0 | 0.0 | 3.2 | 0.00 | 0.00 | 0.00 | 92 | 1016.8 |
| 20260510123104 | 10 | 185 | 1.6 | 4.8 | 0.00 | 0.00 | 0.00 | 93 | 1016.7 |
| 20260510121553 | 9 | 153 | 3.2 | 4.8 | 0.00 | 0.00 | 0.00 | 93 | 1016.6 |
| 20260510120053 | 9 | 131 | 1.6 | 6.4 | 0.00 | 0.00 | 0.00 | 93 | 1016.4 |
| 20260510114550 | 9 | 181 | 0.0 | 3.2 | 0.00 | 0.00 | 0.00 | 93 | 1016.3 |
| 20260510113102 | 9 | 162 | 0.0 | 3.2 | 0.00 | 0.00 | 0.00 | 93 | 1016.4 |
| 20260510111608 | 9 | 51 | 0.0 | 3.2 | 0.00 | 0.00 | 0.00 | 93 | 1016.3 |
| 20260510110055 | 9 | 0 | 0.0 | 4.8 | 0.00 | 0.00 | 0.00 | 93 | 1016.1 |
| 20260510104555 | 9 | 0 | 0.0 | 1.6 | 0.00 | 0.00 | 0.00 | 93 | 1016.0 |
| 20260510103100 | 9 | 40 | 1.6 | 4.8 | 0.00 | 0.00 | 0.00 | 94 | 1015.7 |
| 20260510101554 | 9 | 24 | 1.6 | 4.8 | 0.00 | 0.00 | 0.00 | 94 | 1015.4 |
| 20260510100056 | 9 | 35 | 1.6 | 6.4 | 0.00 | 0.00 | 0.00 | 94 | 1015.3 |
| 20260510094558 | 9 | 25 | 1.6 | 4.8 | 0.00 | 0.00 | 0.00 | 94 | 1015.2 |
| 20260510093104 | 9 | 0 | 0.0 | 0.0 | 0.00 | 0.00 | 0.00 | 94 | 1015.2 |
| 20260510091554 | 9 | 56 | 0.0 | 1.6 | 0.00 | 0.00 | 0.00 | 94 | 1015.0 |
| 20260510090112 | 9 | 82 | 1.6 | 1.6 | 0.00 | 0.00 | 0.00 | 94 | 1014.7 |
| 20260510084556 | 9 | 0 | 0.0 | 3.2 | 0.00 | 0.00 | 0.00 | 94 | 1014.6 |
| 20260510083105 | 9 | 157 | 0.0 | 3.2 | 0.00 | 0.00 | 0.00 | 94 | 1014.4 |
| 20260510081608 | 9 | 0 | 0.0 | 1.6 | 0.00 | 0.00 | 0.00 | 93 | 1014.2 |
| 20260510080059 | 9 | 174 | 1.6 | 4.8 | 0.00 | 0.00 | 0.00 | 94 | 1014.2 |
| 20260510074605 | 9 | 169 | 0.0 | 3.2 | 0.00 | 0.00 | 0.00 | 93 | 1014.1 |
| 20260510073055 | 9 | 167 | 1.6 | 3.2 | 0.00 | 0.00 | 0.00 | 93 | 1014.0 |
| 20260510071553 | 9 | 189 | 1.6 | 4.8 | 0.00 | 0.00 | 0.00 | 93 | 1014.1 |
| 20260510070058 | 9 | 158 | 1.6 | 4.8 | 0.00 | 0.00 | 0.00 | 93 | 1013.9 |
| 20260510064604 | 9 | 0 | 0.0 | 0.0 | 0.00 | 0.00 | 0.00 | 93 | 1013.8 |
| 20260510063057 | 9 | 0 | 0.0 | 0.0 | 0.00 | 0.00 | 0.00 | 93 | 1013.9 |
| 20260510061558 | 8 | 0 | 0.0 | 0.0 | 0.00 | 0.00 | 0.00 | 93 | 1013.8 |
| 20260510060057 | 8 | 0 | 0.0 | 0.0 | 0.00 | 0.00 | 0.00 | 93 | 1013.8 |
| 20260510054551 | 9 | 0 | 0.0 | 0.0 | 0.00 | 0.00 | 0.00 | 92 | 1013.9 |
| 20260510053051 | 9 | 0 | 0.0 | 0.0 | 0.00 | 0.00 | 0.00 | 92 | 1013.9 |
| 20260510051558 | 9 | 0 | 0.0 | 0.0 | 0.00 | 0.00 | 0.00 | 92 | 1013.9 |
| 20260510050056 | 10 | 0 | 0.0 | 0.0 | 0.00 | 0.00 | 0.00 | 91 | 1013.8 |
| 20260510044637 | 10 | 0 | 0.0 | 0.0 | 0.00 | 0.00 | 0.00 | 91 | 1013.7 |
| 20260510043052 | 10 | 0 | 0.0 | 0.0 | 0.00 | 0.00 | 0.00 | 90 | 1013.8 |
| 20260510041552 | 10 | 0 | 0.0 | 0.0 | 0.00 | 0.00 | 0.00 | 89 | 1013.6 |
| 20260510040054 | 10 | 0 | 0.0 | 0.0 | 0.00 | 0.00 | 0.00 | 89 | 1013.6 |
| 20260510034553 | 11 | 0 | 0.0 | 0.0 | 0.00 | 0.00 | 0.00 | 87 | 1013.5 |
| 20260510033056 | 11 | 0 | 0.0 | 0.0 | 0.00 | 0.00 | 0.00 | 87 | 1013.4 |
| 20260510031557 | 11 | 0 | 0.0 | 0.0 | 0.00 | 0.00 | 0.00 | 86 | 1013.2 |
| 20260510030052 | 11 | 0 | 0.0 | 0.0 | 0.00 | 0.00 | 0.00 | 85 | 1013.3 |
| 20260510024554 | 11 | 0 | 0.0 | 0.0 | 0.00 | 0.00 | 0.00 | 83 | 1013.4 |
| 20260510023053 | 12 | 0 | 0.0 | 0.0 | 0.00 | 0.00 | 0.00 | 82 | 1013.2 |
| 20260510021552 | 12 | 0 | 0.0 | 0.0 | 0.00 | 0.00 | 0.00 | 81 | 1013.0 |
| 20260510020056 | 13 | 0 | 0.0 | 0.0 | 0.00 | 0.00 | 0.00 | 79 | 1012.8 |
| 20260510014556 | 13 | 0 | 0.0 | 0.0 | 0.00 | 0.00 | 0.00 | 77 | 1012.4 |
| 20260510013057 | 13 | 0 | 0.0 | 0.0 | 0.00 | 0.00 | 0.00 | 75 | 1011.9 |
| 20260510011559 | 14 | 157 | 0.0 | 1.6 | 0.00 | 0.00 | 0.00 | 72 | 1011.8 |
| 20260510010131 | 15 | 156 | 0.0 | 0.0 | 0.00 | 0.00 | 0.00 | 70 | 1011.5 |
| 20260510004555 | 16 | 0 | 0.0 | 3.2 | 0.00 | 0.00 | 0.00 | 65 | 1011.1 |
| 20260510003052 | 16 | 0 | 0.0 | 3.2 | 0.00 | 0.00 | 0.00 | 63 | 1011.1 |
| 20260510001553 | 17 | 216 | 0.0 | 1.6 | 0.00 | 0.00 | 0.00 | 60 | 1010.9 |
| 20260510000054 | 18 | 0 | 0.0 | 1.6 | 0.00 | 0.00 | 0.00 | 57 | 1010.6 |
| 20260509234625 | 19 | 238 | 0.0 | 3.2 | 0.00 | 0.00 | 0.00 | 52 | 1010.3 |
| 20260509233054 | 20 | 71 | 1.6 | 12.9 | 0.00 | 0.00 | 0.00 | 48 | 1010.2 |
| 20260509231552 | 21 | 0 | 1.6 | 8.0 | 0.00 | 0.00 | 0.00 | 45 | 1010.1 |
| 20260509230051 | 21 | 23 | 6.4 | 17.7 | 0.00 | 0.00 | 0.00 | 44 | 1010.0 |
| 20260509224552 | 22 | 0 | 1.6 | 9.7 | 0.00 | 0.00 | 0.00 | 43 | 1010.2 |
| 20260509223053 | 22 | 0 | 1.6 | 12.9 | 0.00 | 0.00 | 0.00 | 43 | 1010.1 |
| 20260509221550 | 21 | 150 | 4.8 | 11.3 | 0.00 | 0.00 | 0.00 | 43 | 1010.4 |
| 20260509220107 | 22 | 178 | 4.8 | 11.3 | 0.00 | 0.00 | 0.00 | 42 | 1010.3 |
| 20260509214553 | 22 | 87 | 4.8 | 11.3 | 0.00 | 0.00 | 0.00 | 44 | 1010.3 |
| 20260509213052 | 21 | 160 | 8.0 | 16.1 | 0.00 | 0.00 | 0.00 | 43 | 1010.2 |
| 20260509211555 | 21 | 278 | 0.0 | 16.1 | 0.00 | 0.00 | 0.00 | 42 | 1010.1 |
| 20260509210053 | 21 | 40 | 9.7 | 32.2 | 0.00 | 0.00 | 0.00 | 42 | 1010.0 |
| 20260509204553 | 21 | 54 | 12.9 | 27.4 | 0.00 | 0.00 | 0.00 | 42 | 1010.0 |
| 20260509203129 | 21 | 65 | 9.7 | 19.3 | 0.00 | 0.00 | 0.00 | 43 | 1009.6 |
| 20260509201610 | 21 | 72 | 1.6 | 9.7 | 0.00 | 0.00 | 0.00 | 42 | 1009.4 |
| 20260509200059 | 21 | 193 | 3.2 | 22.5 | 0.00 | 0.00 | 0.00 | 41 | 1009.4 |
| 20260509194554 | 21 | 18 | 9.7 | 19.3 | 0.00 | 0.00 | 0.00 | 42 | 1009.3 |
| 20260509193111 | 22 | 58 | 9.7 | 27.4 | 0.00 | 0.00 | 0.00 | 42 | 1009.4 |
| 20260509191607 | 22 | 74 | 9.7 | 25.7 | 0.00 | 0.00 | 0.00 | 41 | 1009.3 |
| 20260509190052 | 22 | 75 | 3.2 | 12.9 | 0.00 | 0.00 | 0.00 | 41 | 1009.4 |
| 20260509184555 | 22 | 349 | 4.8 | 19.3 | 0.00 | 0.00 | 0.00 | 40 | 1009.4 |
| 20260509183053 | 22 | 15 | 12.9 | 25.7 | 0.00 | 0.00 | 0.00 | 41 | 1009.5 |
| 20260509181600 | 21 | 6 | 8.0 | 16.1 | 0.00 | 0.00 | 0.00 | 43 | 1009.4 |